Location: Peterborough
(44.3091°N, 78.3197°W)
Time: 16:01:56
(UTC-04:00)

Explorer 7 - Pass Details

Date: 26 March 2023
Orbit: 477 x 653 km, 50.3° (Epoch: 04 June)

Event Time Altitude Azimuth Distance (km) Brightness Sun altitude
Rises 21:27:17 0° 293° (WNW) 2,792 12.0 -20.5°
Reaches altitude 10° 21:29:42 10° 301° (WNW) 1,859 10.7 -20.9°
Maximum altitude 21:33:44 43° 13° (NNE) 770 7.6 -21.5°
Enters shadow 21:34:20 40° 38° (NE) 803 7.5 -21.6°
Drops below altitude 10° 21:37:33 10° 86° (E) 1,750 - -22.1°
Sets 21:39:46 0° 93° (E) 2,608 - -22.5°
